TIANMU-1 14

Last updated on Tue Jan 14 2025 00:02:18 GMT+0000 (Coordinated Universal Time)

1 58648U 23205D 25013.55273761 .00007203 00000+0 34254-3 0 9992 2 58648 97.3805 39.2447 0010055 19.1964 340.9648 15.19440644 58392
UTC large
Height (km)
Speed (km/s)
/
Latitude / Longitude
Inclination (degrees)
Orbital Period (minutes)
Azimuth
Elevation
Range (km)
Doppler Factor

Next 0 passes for location: London (51.5072 / 0.1276)

Sorry there are no passes over London.